Flag for India Weather past 2 weeks in Jalandhar, Punjab, India

Now
88 °F

Haze.


Feels Like: 88 °F
Forecast: 70 / 99 °F
Wind: 7 mph from Northwest

Location: Amritsar Airport

Current Time: Apr 21, 2015 at 11:11:32 AM

Latest Report: Apr 21, 2015 at 10:30 AM


Visibility: 3 mi

Pressure: 29.83 "Hg

Humidity: 43%

Dew point: 63 °F

Location of JalandharLocation

Historic Weather in Jalandhar — Graph

°F

Jalandhar temperature yesterday

Maximum temperature yesterday: 100 °F (at 2:30 PM)
Minimum temperature yesterday: 72 °F (at 6:00 AM)
Average temperature yesterday: 83 °F

Past Weeks' High & Low Weather Summary

 TemperatureHumidityPressure
High100 °F (Apr 20, 2:30 PM)100% (Apr 7, 4:30 AM)30.12 "Hg (Apr 7, 4:30 AM)
Low55 °F (Apr 8, 6:00 AM)21% (Apr 20, 3:00 PM)29.59 "Hg (Apr 19, 6:30 PM)
Average76 °F67%29.85 "Hg
* Reported Apr 6 9:30 AM — Apr 21 9:30 AM, Jalandhar, Weather by CustomWeather, © 2015

Note: Actual official high and low records may vary slightly from our data, if they occured in-between our weather recording intervals... More about our weather records

Advertising

Jalandhar weather history for previous 24 hours

 ConditionsComfort  
Time TempWeatherWind HumidityBarometerVisibility
9:30 AM
Tue, Apr 21
84 °FHaze.6 mph51%29.80 "Hg3 mi
8:30 AM77 °FFog.8 mph65%29.80 "Hg2 mi
8:00 AM73 °FFog.7 mph74%29.80 "Hg2 mi
7:30 AM70 °FFog.3 mph83%29.80 "Hg2 mi
7:00 AM68 °FFog.No wind83%29.77 "Hg2 mi
6:30 AM66 °FFog.No wind83%29.77 "Hg2 mi
6:00 AM66 °FFog.No wind83%29.77 "Hg2 mi
5:30 AM66 °FFog.2 mph83%29.77 "Hg2 mi
5:00 AM68 °FFog.1 mph78%29.74 "Hg2 mi
4:30 AM70 °FFog.1 mph78%29.74 "Hg2 mi
4:00 AM68 °FFog.No wind83%29.74 "Hg2 mi
3:30 AM68 °FFog.No wind83%29.74 "Hg2 mi
3:00 AM68 °FFog.2 mph83%29.74 "Hg2 mi
1:30 AM72 °FFog.1 mph78%29.77 "Hg2 mi
1:00 AM72 °FFog.1 mph78%29.77 "Hg2 mi
12:30 AM72 °FFog.No wind83%29.77 "Hg2 mi
12:00 AM73 °FHaze.No wind78%29.77 "Hg2 mi
11:30 PM
Mon, Apr 20
73 °FHaze.2 mph78%29.77 "Hg2 mi
11:00 PM77 °FHaze.1 mph74%29.77 "Hg2 mi
10:30 PM75 °FPassing clouds.No wind74%29.77 "Hg2 mi
10:00 PM77 °FPassing clouds.No wind69%29.77 "Hg2 mi
9:30 PM79 °FPassing clouds.1 mph65%29.77 "Hg2 mi
8:30 PM82 °FPassing clouds.6 mph62%29.74 "Hg1 mi
8:00 PM82 °FPassing clouds.9 mph62%29.74 "Hg1 mi
7:30 PM84 °FPartly sunny.10 mph58%29.71 "Hg1 mi
7:00 PM86 °FPartly sunny.13 mph55%29.71 "Hg1 mi
6:30 PM90 °FPartly sunny.8 mph43%29.71 "Hg1 mi
6:00 PM91 °FPartly sunny.9 mph44%29.68 "Hg1 mi
4:30 PM97 °FPartly sunny.N/A30%29.68 "Hg1 mi
4:00 PM97 °FPartly sunny.N/A30%29.68 "Hg1 mi
3:30 PM100 °FPartly sunny.8 mph21%29.68 "Hg1 mi
3:00 PM100 °FPartly sunny.10 mph21%29.68 "Hg1 mi
2:30 PM100 °FPartly sunny.10 mph22%29.71 "Hg1 mi
2:00 PM99 °FPartly sunny.10 mph25%29.71 "Hg1 mi
1:30 PM99 °FPartly sunny.13 mph24%29.71 "Hg1 mi
1:00 PM99 °FPartly sunny.14 mph24%29.74 "Hg1 mi
12:30 PM97 °FPartly sunny.13 mph27%29.74 "Hg1 mi
12:00 PM95 °FPartly sunny.12 mph28%29.74 "Hg1 mi
11:00 AM91 °FPartly sunny.9 mph38%29.77 "Hg2 mi
Weather by CustomWeather, © 2015

See weather overviewHow to use our weather pages